Time,TemperatureF,DewpointF,PressureIn,WindDirection,WindDirectionDegrees,WindSpeedMPH,WindSpeedGustMPH,Humidity,HourlyPrecipIn,Conditions,Clouds,dailyrainin,SolarRadiationWatts/m^2,SoftwareType,DateUTC
2013-03-27 00:00:00,35.6,21.5,29.72,WNW,287,3.0,4.0,56,0.00,,OVC021,0.00,0.00,VWS V14.01,2013-03-27 04:00:00,
2013-03-27 00:05:00,35.4,21.3,29.72,WNW,287,2.0,3.0,56,0.00,,OVC021,0.00,0.00,VWS V14.01,2013-03-27 04:05:00,
2013-03-27 00:10:00,35.1,21.4,29.72,WNW,287,1.0,4.0,57,0.00,,OVC021,0.00,0.00,VWS V14.01,2013-03-27 04:10:00,
2013-03-27 00:15:00,34.8,21.5,29.72,WNW,287,2.0,3.0,58,0.00,,OVC021,0.00,0.00,VWS V14.01,2013-03-27 04:15:00,
2013-03-27 00:20:00,34.5,22.1,29.72,WNW,287,0.0,3.0,60,0.00,,OVC021,0.00,0.00,VWS V14.01,2013-03-27 04:20:00,
2013-03-27 00:25:00,34.1,21.7,29.72,WNW,287,1.0,2.0,60,0.00,,OVC021,0.00,0.00,VWS V14.01,2013-03-27 04:25:00,
2013-03-27 00:30:00,33.8,21.4,29.72,WNW,287,1.0,2.0,60,0.00,,OVC021,0.00,0.00,VWS V14.01,2013-03-27 04:30:00,
2013-03-27 00:35:00,33.5,21.1,29.72,WNW,287,2.0,3.0,60,0.00,,OVC021,0.00,0.00,VWS V14.01,2013-03-27 04:35:00,
2013-03-27 00:40:00,33.3,21.3,29.72,WNW,286,1.0,2.0,61,0.00,,OVC021,0.00,0.00,VWS V14.01,2013-03-27 04:40:00,
2013-03-27 00:45:00,33.0,21.4,29.72,WNW,287,0.0,2.0,62,0.00,,OVC021,0.00,0.00,VWS V14.01,2013-03-27 04:45:00,
2013-03-27 00:50:00,32.7,21.1,29.72,WNW,287,0.0,1.0,62,0.00,,OVC021,0.00,0.00,VWS V14.01,2013-03-27 04:50:00,
2013-03-27 00:55:00,32.4,21.2,29.72,WNW,288,0.0,0.0,63,0.00,,OVC021,0.00,0.00,VWS V14.01,2013-03-27 04:55:00,
2013-03-27 01:00:00,32.1,21.3,29.72,WNW,287,0.0,1.0,64,0.00,,OVC021,0.00,0.00,VWS V14.01,2013-03-27 05:00:00,
2013-03-27 01:05:00,32.0,21.6,29.72,WNW,287,0.0,0.0,65,0.00,,OVC021,0.00,0.00,VWS V14.01,2013-03-27 05:05:00,
2013-03-27 01:10:00,31.7,21.7,29.72,WNW,287,0.0,0.0,66,0.00,,OVC021,0.00,0.00,VWS V14.01,2013-03-27 05:10:00,
2013-03-27 01:15:00,31.5,21.8,29.72,WNW,288,0.0,0.0,67,0.00,,OVC021,0.00,0.00,VWS V14.01,2013-03-27 05:15:00,
2013-03-27 01:20:00,31.3,21.3,29.72,WNW,287,0.0,0.0,66,0.00,,OVC021,0.00,0.00,VWS V14.01,2013-03-27 05:20:00,
2013-03-27 01:25:00,31.1,21.1,29.72,WNW,287,0.0,0.0,66,0.00,,OVC021,0.00,0.00,VWS V14.01,2013-03-27 05:25:00,
2013-03-27 01:30:00,30.8,21.1,29.72,WNW,286,0.0,0.0,67,0.00,,OVC021,0.00,0.00,VWS V14.01,2013-03-27 05:30:00,
2013-03-27 01:35:00,30.6,21.3,29.72,WNW,287,0.0,0.0,68,0.00,,OVC021,0.00,0.00,VWS V14.01,2013-03-27 05:35:00,
2013-03-27 01:40:00,30.4,21.5,29.72,WNW,287,1.0,1.0,69,0.00,,OVC021,0.00,0.00,VWS V14.01,2013-03-27 05:40:00,
2013-03-27 01:45:00,30.4,21.5,29.72,WNW,288,0.0,2.0,69,0.00,,OVC021,0.00,0.00,VWS V14.01,2013-03-27 05:45:00,
2013-03-27 01:50:00,30.5,21.6,29.72,WNW,286,0.0,0.0,69,0.00,,OVC021,0.00,0.00,VWS V14.01,2013-03-27 05:50:00,
2013-03-27 01:55:00,30.3,21.7,29.72,WNW,286,0.0,0.0,70,0.00,,OVC021,0.00,0.00,VWS V14.01,2013-03-27 05:55:00,
2013-03-27 02:00:00,30.1,21.9,29.72,WNW,288,0.0,0.0,71,0.00,,OVC021,0.00,0.00,VWS V14.01,2013-03-27 06:00:00,
2013-03-27 02:05:00,29.8,21.6,29.72,WNW,287,0.0,0.0,71,0.00,,OVC021,0.00,0.00,VWS V14.01,2013-03-27 06:05:00,
2013-03-27 02:10:00,29.5,21.3,29.72,WNW,287,0.0,0.0,71,0.00,,OVC021,0.00,0.00,VWS V14.01,2013-03-27 06:10:00,
2013-03-27 02:15:00,29.3,21.4,29.72,WNW,286,0.0,0.0,72,0.00,,OVC021,0.00,0.00,VWS V14.01,2013-03-27 06:15:00,
2013-03-27 02:20:00,29.2,21.6,29.72,WNW,288,0.0,0.0,73,0.00,,OVC021,0.00,0.00,VWS V14.01,2013-03-27 06:20:00,
2013-03-27 02:25:00,29.0,21.4,29.72,WNW,287,0.0,0.0,73,0.00,,OVC021,0.00,0.00,VWS V14.01,2013-03-27 06:25:00,
2013-03-27 02:30:00,28.7,21.5,29.72,WNW,287,0.0,0.0,74,0.00,,OVC021,0.00,0.00,VWS V14.01,2013-03-27 06:30:00,
2013-03-27 02:35:00,28.5,21.6,29.72,WNW,287,0.0,0.0,75,0.00,,OVC021,0.00,0.00,VWS V14.01,2013-03-27 06:35:00,
2013-03-27 02:40:00,28.4,21.5,29.72,WNW,287,0.0,0.0,75,0.00,,OVC021,0.00,0.00,VWS V14.01,2013-03-27 06:40:00,
2013-03-27 02:45:00,28.3,21.7,29.71,WNW,286,0.0,0.0,76,0.00,,OVC021,0.00,0.00,VWS V14.01,2013-03-27 06:45:00,
2013-03-27 02:50:00,28.3,21.7,29.72,WNW,287,0.0,0.0,76,0.00,,OVC021,0.00,0.00,VWS V14.01,2013-03-27 06:50:00,
2013-03-27 02:55:00,28.2,21.3,29.71,WNW,287,0.0,0.0,75,0.00,,OVC021,0.00,0.00,VWS V14.01,2013-03-27 06:55:00,
2013-03-27 03:00:00,28.1,21.2,29.72,WNW,287,0.0,0.0,75,0.00,,OVC021,0.00,0.00,VWS V14.01,2013-03-27 07:00:00,
2013-03-27 03:05:00,27.9,21.0,29.71,WNW,286,0.0,0.0,75,0.00,,OVC021,0.00,0.00,VWS V14.01,2013-03-27 07:05:00,
2013-03-27 03:10:00,27.9,21.0,29.71,WNW,287,0.0,0.0,75,0.00,,OVC021,0.00,0.00,VWS V14.01,2013-03-27 07:10:00,
2013-03-27 03:15:00,28.1,20.9,29.71,WNW,288,0.0,1.0,74,0.00,,OVC021,0.00,0.00,VWS V14.01,2013-03-27 07:15:00,
2013-03-27 03:20:00,28.2,21.0,29.71,WNW,287,0.0,0.0,74,0.00,,OVC021,0.00,0.00,VWS V14.01,2013-03-27 07:20:00,
2013-03-27 03:25:00,28.2,21.0,29.71,WNW,288,0.0,0.0,74,0.00,,OVC021,0.00,0.00,VWS V14.01,2013-03-27 07:25:00,
2013-03-27 03:30:00,28.1,20.6,29.71,WNW,287,0.0,0.0,73,0.00,,OVC021,0.00,0.00,VWS V14.01,2013-03-27 07:30:00,
2013-03-27 03:35:00,27.9,20.7,29.71,WNW,287,0.0,0.0,74,0.00,,OVC021,0.00,0.00,VWS V14.01,2013-03-27 07:35:00,
2013-03-27 03:40:00,27.8,20.9,29.71,WNW,288,0.0,0.0,75,0.00,,OVC021,0.00,0.00,VWS V14.01,2013-03-27 07:40:00,
2013-03-27 03:45:00,27.7,21.1,29.71,WNW,287,1.0,1.0,76,0.00,,OVC021,0.00,0.00,VWS V14.01,2013-03-27 07:45:00,
2013-03-27 03:50:00,27.7,21.4,29.71,WNW,287,0.0,1.0,77,0.00,,OVC021,0.00,0.00,VWS V14.01,2013-03-27 07:50:00,
2013-03-27 03:55:00,27.5,20.9,29.71,WNW,287,0.0,1.0,76,0.00,,OVC021,0.00,0.00,VWS V14.01,2013-03-27 07:55:00,
2013-03-27 04:00:00,27.4,21.1,29.71,WNW,286,0.0,1.0,77,0.00,,OVC021,0.00,0.00,VWS V14.01,2013-03-27 08:00:00,
2013-03-27 04:05:00,27.3,21.1,29.71,WNW,287,0.0,0.0,77,0.00,,OVC021,0.00,0.00,VWS V14.01,2013-03-27 08:05:00,
2013-03-27 04:10:00,27.1,20.9,29.71,WNW,287,1.0,1.0,77,0.00,,OVC021,0.00,0.00,VWS V14.01,2013-03-27 08:10:00,
2013-03-27 04:15:00,27.0,20.8,29.71,WNW,287,0.0,1.0,77,0.00,,OVC021,0.00,0.00,VWS V14.01,2013-03-27 08:15:00,
2013-03-27 04:20:00,26.8,20.9,29.71,WNW,287,0.0,1.0,78,0.00,,OVC021,0.00,0.00,VWS V14.01,2013-03-27 08:20:00,
2013-03-27 04:25:00,26.8,20.9,29.71,WNW,288,0.0,0.0,78,0.00,,OVC021,0.00,0.00,VWS V14.01,2013-03-27 08:25:00,
2013-03-27 04:30:00,26.8,20.9,29.71,WNW,287,0.0,0.0,78,0.00,,OVC021,0.00,0.00,VWS V14.01,2013-03-27 08:30:00,
2013-03-27 04:35:00,26.9,21.0,29.71,WNW,287,0.0,0.0,78,0.00,,OVC021,0.00,0.00,VWS V14.01,2013-03-27 08:35:00,
2013-03-27 04:40:00,27.0,21.1,29.71,WNW,287,0.0,0.0,78,0.00,,OVC021,0.00,0.00,VWS V14.01,2013-03-27 08:40:00,
2013-03-27 04:45:00,26.9,21.0,29.71,WNW,286,0.0,0.0,78,0.00,,OVC021,0.00,0.00,VWS V14.01,2013-03-27 08:45:00,
2013-03-27 04:50:00,26.9,21.3,29.71,WNW,286,0.0,0.0,79,0.00,,OVC021,0.00,0.00,VWS V14.01,2013-03-27 08:50:00,
2013-03-27 04:55:00,26.9,21.6,29.71,WNW,287,0.0,0.0,80,0.00,,OVC021,0.00,0.00,VWS V14.01,2013-03-27 08:55:00,
2013-03-27 05:00:00,26.8,21.5,29.71,WNW,288,0.0,0.0,80,0.00,,OVC021,0.00,0.00,VWS V14.01,2013-03-27 09:00:00,
2013-03-27 05:05:00,26.7,21.4,29.71,WNW,287,0.0,0.0,80,0.00,,OVC021,0.00,0.00,VWS V14.01,2013-03-27 09:05:00,
2013-03-27 05:10:00,26.6,21.3,29.71,WNW,287,0.0,0.0,80,0.00,,OVC021,0.00,0.00,VWS V14.01,2013-03-27 09:10:00,
2013-03-27 05:15:00,26.4,20.8,29.71,WNW,288,0.0,0.0,79,0.00,,OVC021,0.00,0.00,VWS V14.01,2013-03-27 09:15:00,
2013-03-27 05:20:00,26.4,21.1,29.72,WNW,287,0.0,0.0,80,0.00,,OVC021,0.00,0.00,VWS V14.01,2013-03-27 09:20:00,
2013-03-27 05:25:00,26.3,21.0,29.72,WNW,288,0.0,0.0,80,0.00,,OVC021,0.00,0.00,VWS V14.01,2013-03-27 09:25:00,
2013-03-27 05:30:00,26.1,20.8,29.72,WNW,288,0.0,0.0,80,0.00,,OVC021,0.00,0.00,VWS V14.01,2013-03-27 09:30:00,
2013-03-27 05:35:00,26.1,20.8,29.72,WNW,286,0.0,0.0,80,0.00,,OVC021,0.00,0.00,VWS V14.01,2013-03-27 09:35:00,
2013-03-27 05:40:00,26.2,20.6,29.72,WNW,287,0.0,0.0,79,0.00,,OVC021,0.00,0.00,VWS V14.01,2013-03-27 09:40:00,
2013-03-27 05:45:00,26.2,20.6,29.72,WNW,288,0.0,0.0,79,0.00,,OVC021,0.00,0.00,VWS V14.01,2013-03-27 09:45:00,
2013-03-27 05:50:00,26.3,21.0,29.72,WNW,287,0.0,0.0,80,0.00,,OVC021,0.00,0.00,VWS V14.01,2013-03-27 09:50:00,
2013-03-27 05:55:00,26.4,20.8,29.72,WNW,287,0.0,0.0,79,0.00,,OVC021,0.00,0.00,VWS V14.01,2013-03-27 09:55:00,
2013-03-27 06:00:00,26.4,20.8,29.72,WNW,287,0.0,0.0,79,0.00,,OVC021,0.00,0.00,VWS V14.01,2013-03-27 10:00:00,
2013-03-27 06:05:00,26.4,20.8,29.72,WNW,288,0.0,0.0,79,0.00,,OVC021,0.00,0.00,VWS V14.01,2013-03-27 10:05:00,
2013-03-27 06:10:00,26.3,20.7,29.72,WNW,287,0.0,0.0,79,0.00,,OVC021,0.00,0.00,VWS V14.01,2013-03-27 10:10:00,
2013-03-27 06:15:00,26.2,20.6,29.73,WNW,287,0.0,0.0,79,0.00,,OVC021,0.00,0.00,VWS V14.01,2013-03-27 10:15:00,
2013-03-27 06:20:00,26.2,20.9,29.73,WNW,286,0.0,0.0,80,0.00,,OVC021,0.00,0.00,VWS V14.01,2013-03-27 10:20:00,
2013-03-27 06:25:00,26.3,21.0,29.73,WNW,287,0.0,0.0,80,0.00,,OVC021,0.00,0.00,VWS V14.01,2013-03-27 10:25:00,
2013-03-27 06:30:00,26.2,20.6,29.73,WNW,287,0.0,0.0,79,0.00,,OVC021,0.00,0.00,VWS V14.01,2013-03-27 10:30:00,
2013-03-27 06:35:00,26.0,20.7,29.73,WNW,288,0.0,1.0,80,0.00,,OVC021,0.00,0.00,VWS V14.01,2013-03-27 10:35:00,
2013-03-27 06:40:00,25.9,20.6,29.73,WNW,287,0.0,1.0,80,0.00,,OVC021,0.00,5.00,VWS V14.01,2013-03-27 10:40:00,
2013-03-27 06:45:00,26.0,20.7,29.73,WNW,287,0.0,2.0,80,0.00,,OVC021,0.00,9.00,VWS V14.01,2013-03-27 10:45:00,
2013-03-27 06:50:00,26.5,20.9,29.73,WNW,288,0.0,3.0,79,0.00,,OVC021,0.00,11.00,VWS V14.01,2013-03-27 10:50:00,
2013-03-27 06:55:00,27.2,21.3,29.73,WNW,287,2.0,3.0,78,0.00,,OVC021,0.00,12.00,VWS V14.01,2013-03-27 10:55:00,
2013-03-27 07:00:00,27.8,21.2,29.73,WNW,287,2.0,3.0,76,0.00,,OVC021,0.00,30.00,VWS V14.01,2013-03-27 11:00:00,
2013-03-27 07:04:00,28.7,21.8,29.73,WNW,287,2.0,3.0,75,0.00,,OVC021,0.00,44.00,VWS V14.01,2013-03-27 11:04:00,
2013-03-27 07:05:00,28.5,21.6,29.73,WNW,288,0.0,3.0,75,0.00,,OVC021,0.00,40.00,VWS V14.01,2013-03-27 11:05:00,
2013-03-27 07:06:00,28.9,21.7,29.73,WNW,287,2.0,3.0,74,0.00,,OVC021,0.00,47.00,VWS V14.01,2013-03-27 11:06:00,
2013-03-27 07:07:00,29.0,21.8,29.73,WNW,287,2.0,3.0,74,0.00,,OVC021,0.00,49.00,VWS V14.01,2013-03-27 11:07:00,
2013-03-27 07:10:00,29.1,21.9,29.73,WNW,288,1.0,3.0,74,0.00,,OVC021,0.00,49.00,VWS V14.01,2013-03-27 11:10:00,
2013-03-27 07:13:00,29.6,21.7,29.73,WNW,287,0.0,3.0,72,0.00,,OVC021,0.00,62.00,VWS V14.01,2013-03-27 11:13:00,
2013-03-27 07:15:00,29.6,21.7,29.73,WNW,286,0.0,3.0,72,0.00,,OVC021,0.00,62.00,VWS V14.01,2013-03-27 11:15:00,
2013-03-27 07:18:00,30.1,21.9,29.73,WNW,288,0.0,4.0,71,0.00,,OVC021,0.00,76.00,VWS V14.01,2013-03-27 11:18:00,
2013-03-27 07:20:00,30.1,21.9,29.73,WNW,288,0.0,4.0,71,0.00,,OVC021,0.00,76.00,VWS V14.01,2013-03-27 11:20:00,
2013-03-27 07:23:00,30.6,22.3,29.74,WNW,287,1.0,2.0,71,0.00,,OVC021,0.00,95.00,VWS V14.01,2013-03-27 11:23:00,
2013-03-27 07:25:00,30.6,22.3,29.74,WNW,287,1.0,2.0,71,0.00,,OVC021,0.00,95.00,VWS V14.01,2013-03-27 11:25:00,
2013-03-27 07:28:00,31.1,22.5,29.74,WNW,288,0.0,2.0,70,0.00,,OVC021,0.00,109.00,VWS V14.01,2013-03-27 11:28:00,
2013-03-27 07:30:00,31.1,22.5,29.74,WNW,288,0.0,2.0,70,0.00,,OVC021,0.00,109.00,VWS V14.01,2013-03-27 11:30:00,
2013-03-27 07:33:00,31.5,22.5,29.74,WNW,286,1.0,3.0,69,0.00,,OVC021,0.00,128.00,VWS V14.01,2013-03-27 11:33:00,
2013-03-27 07:35:00,31.5,22.5,29.74,WNW,286,1.0,3.0,69,0.00,,OVC021,0.00,128.00,VWS V14.01,2013-03-27 11:35:00,
2013-03-27 07:38:00,31.9,22.2,29.74,WNW,287,3.0,3.0,67,0.00,,OVC021,0.00,148.00,VWS V14.01,2013-03-27 11:38:00,
2013-03-27 07:40:00,31.9,22.2,29.74,WNW,287,3.0,3.0,67,0.00,,OVC021,0.00,148.00,VWS V14.01,2013-03-27 11:40:00,
2013-03-27 07:43:00,32.3,22.6,29.74,WNW,287,3.0,4.0,67,0.00,,OVC021,0.00,169.00,VWS V14.01,2013-03-27 11:43:00,
2013-03-27 07:45:00,32.3,22.6,29.74,WNW,287,3.0,4.0,67,0.00,,OVC021,0.00,169.00,VWS V14.01,2013-03-27 11:45:00,
2013-03-27 07:48:00,32.6,22.5,29.74,West,276,1.0,2.0,66,0.00,,OVC021,0.00,190.00,VWS V14.01,2013-03-27 11:48:00,
2013-03-27 07:50:00,32.6,22.5,29.74,West,275,2.0,6.0,66,0.00,,OVC021,0.00,190.00,VWS V14.01,2013-03-27 11:50:00,
2013-03-27 07:53:00,32.9,22.8,29.74,West,276,4.0,6.0,66,0.00,,OVC021,0.00,211.00,VWS V14.01,2013-03-27 11:53:00,
2013-03-27 07:55:00,32.9,22.8,29.74,WNW,298,4.0,7.0,66,0.00,,OVC021,0.00,211.00,VWS V14.01,2013-03-27 11:55:00,
2013-03-27 07:58:00,33.3,22.8,29.74,West,281,4.0,4.0,65,0.00,,OVC021,0.00,232.00,VWS V14.01,2013-03-27 11:58:00,
2013-03-27 08:00:00,33.3,22.8,29.74,WSW,239,4.0,7.0,65,0.00,,OVC021,0.00,232.00,VWS V14.01,2013-03-27 12:00:00,
2013-03-27 08:03:00,33.9,22.6,29.74,West,261,4.0,6.0,63,0.00,,OVC021,0.00,251.00,VWS V14.01,2013-03-27 12:03:00,
2013-03-27 08:05:00,33.8,22.5,29.74,WNW,283,3.0,7.0,63,0.00,,OVC021,0.00,248.00,VWS V14.01,2013-03-27 12:05:00,
2013-03-27 08:09:00,34.4,23.1,29.74,NW,318,4.0,6.0,63,0.00,,OVC021,0.00,269.00,VWS V14.01,2013-03-27 12:09:00,
2013-03-27 08:10:00,34.3,23.0,29.74,WNW,300,3.0,7.0,63,0.00,,OVC021,0.00,265.00,VWS V14.01,2013-03-27 12:10:00,
2013-03-27 08:14:00,34.9,23.2,29.74,West,273,3.0,7.0,62,0.00,,OVC021,0.00,287.00,VWS V14.01,2013-03-27 12:14:00,
2013-03-27 08:15:00,34.8,23.1,29.74,West,267,4.0,8.0,62,0.00,,OVC021,0.00,283.00,VWS V14.01,2013-03-27 12:15:00,
2013-03-27 08:19:00,35.5,23.4,29.74,West,277,5.0,7.0,61,0.00,,OVC021,0.00,304.00,VWS V14.01,2013-03-27 12:19:00,
2013-03-27 08:20:00,35.4,23.7,29.74,West,273,5.0,9.0,62,0.00,,OVC021,0.00,302.00,VWS V14.01,2013-03-27 12:20:00,
2013-03-27 08:24:00,36.1,23.6,29.74,WNW,288,3.0,7.0,60,0.00,,OVC021,0.00,323.00,VWS V14.01,2013-03-27 12:24:00,
2013-03-27 08:25:00,36.0,23.5,29.74,West,265,4.0,8.0,60,0.00,,OVC021,0.00,320.00,VWS V14.01,2013-03-27 12:25:00,
2013-03-27 08:29:00,36.8,23.8,29.74,NNW,327,6.0,11.0,59,0.00,,OVC021,0.00,343.00,VWS V14.01,2013-03-27 12:29:00,
2013-03-27 08:30:00,36.6,24.0,29.74,WNW,290,4.0,8.0,60,0.00,,OVC021,0.00,336.00,VWS V14.01,2013-03-27 12:30:00,
2013-03-27 08:35:00,37.4,24.0,29.74,NW,326,5.0,10.0,58,0.00,,OVC021,0.00,359.00,VWS V14.01,2013-03-27 12:35:00,
2013-03-27 08:40:00,38.0,23.3,29.74,WNW,297,3.0,11.0,55,0.00,,OVC021,0.00,376.00,VWS V14.01,2013-03-27 12:40:00,
2013-03-27 08:45:00,38.4,23.7,29.74,WNW,292,7.0,8.0,55,0.00,,OVC021,0.00,394.00,VWS V14.01,2013-03-27 12:45:00,
2013-03-27 08:50:00,39.1,23.9,29.74,NW,304,7.0,9.0,54,0.00,,OVC021,0.00,410.00,VWS V14.01,2013-03-27 12:50:00,
2013-03-27 08:55:00,39.7,23.5,29.74,NNW,343,9.0,10.0,52,0.00,,OVC021,0.00,425.00,VWS V14.01,2013-03-27 12:55:00,
2013-03-27 09:00:00,40.3,24.5,29.74,NW,317,7.0,9.0,53,0.00,,OVC021,0.00,441.00,VWS V14.01,2013-03-27 13:00:00,
2013-03-27 09:05:00,40.5,23.8,29.74,NW,311,6.0,14.0,51,0.00,,OVC021,0.00,448.00,VWS V14.01,2013-03-27 13:05:00,
2013-03-27 09:06:00,40.8,24.5,29.74,NNW,343,6.0,6.0,52,0.00,,OVC021,0.00,457.00,VWS V14.01,2013-03-27 13:06:00,
2013-03-27 09:10:00,41.1,24.4,29.74,NW,306,7.0,9.0,51,0.00,,OVC021,0.00,464.00,VWS V14.01,2013-03-27 13:10:00,
2013-03-27 09:11:00,41.4,24.2,29.74,NNW,336,4.0,9.0,50,0.00,,OVC021,0.00,473.00,VWS V14.01,2013-03-27 13:11:00,
2013-03-27 09:15:00,41.6,23.9,29.74,NW,304,12.0,14.0,49,0.00,,OVC021,0.00,478.00,VWS V14.01,2013-03-27 13:15:00,
2013-03-27 09:16:00,41.6,23.9,29.74,NW,325,9.0,12.0,49,0.00,,OVC021,0.00,490.00,VWS V14.01,2013-03-27 13:16:00,
2013-03-27 09:20:00,41.7,23.5,29.74,NW,323,6.0,12.0,48,0.00,,OVC021,0.00,494.00,VWS V14.01,2013-03-27 13:20:00,
2013-03-27 09:21:00,41.8,23.6,29.74,WNW,284,5.0,13.0,48,0.00,,OVC021,0.00,504.00,VWS V14.01,2013-03-27 13:21:00,
2013-03-27 09:25:00,42.0,24.2,29.74,NNW,336,6.0,13.0,49,0.00,,OVC021,0.00,506.00,VWS V14.01,2013-03-27 13:25:00,
2013-03-27 09:27:00,42.5,24.2,29.74,WNW,288,8.0,13.0,48,0.00,,OVC021,0.00,519.00,VWS V14.01,2013-03-27 13:27:00,
2013-03-27 09:30:00,42.6,23.8,29.73,WNW,296,8.0,13.0,47,0.00,,OVC021,0.00,522.00,VWS V14.01,2013-03-27 13:30:00,
2013-03-27 09:32:00,42.8,24.0,29.74,WNW,286,4.0,14.0,47,0.00,,OVC021,0.00,534.00,VWS V14.01,2013-03-27 13:32:00,
2013-03-27 09:35:00,42.8,24.5,29.74,WNW,283,5.0,14.0,48,0.00,,OVC021,0.00,536.00,VWS V14.01,2013-03-27 13:35:00,
2013-03-27 09:37:00,43.1,23.7,29.73,West,262,11.0,13.0,46,0.00,,OVC021,0.00,547.00,VWS V14.01,2013-03-27 13:37:00,
2013-03-27 09:40:00,43.1,24.3,29.73,NNW,329,9.0,17.0,47,0.00,,OVC021,0.00,550.00,VWS V14.01,2013-03-27 13:40:00,
2013-03-27 09:42:00,43.1,23.7,29.73,WNW,300,7.0,17.0,46,0.00,,OVC021,0.00,561.00,VWS V14.01,2013-03-27 13:42:00,
2013-03-27 09:45:00,43.1,23.7,29.73,WNW,288,4.0,17.0,46,0.00,,OVC021,0.00,563.00,VWS V14.01,2013-03-27 13:45:00,
2013-03-27 09:48:00,43.3,23.4,29.73,NW,313,13.0,15.0,45,0.00,,OVC021,0.00,575.00,VWS V14.01,2013-03-27 13:48:00,
2013-03-27 09:50:00,43.3,23.4,29.73,WNW,303,14.0,15.0,45,0.00,,OVC021,0.00,575.00,VWS V14.01,2013-03-27 13:50:00,
2013-03-27 09:53:00,43.5,24.1,29.73,NW,321,10.0,15.0,46,0.00,,OVC021,0.00,587.00,VWS V14.01,2013-03-27 13:53:00,
2013-03-27 09:55:00,43.5,24.1,29.73,NW,321,10.0,15.0,46,0.00,,OVC021,0.00,587.00,VWS V14.01,2013-03-27 13:55:00,
2013-03-27 09:58:00,44.1,24.7,29.73,West,266,6.0,11.0,46,0.00,,OVC021,0.00,599.00,VWS V14.01,2013-03-27 13:58:00,
2013-03-27 10:00:00,44.1,24.7,29.73,West,266,6.0,11.0,46,0.00,,OVC021,0.00,599.00,VWS V14.01,2013-03-27 14:00:00,
2013-03-27 10:03:00,44.5,24.0,29.73,NNW,333,5.0,12.0,44,0.00,,OVC021,0.00,612.00,VWS V14.01,2013-03-27 14:03:00,
2013-03-27 10:05:00,44.5,24.0,29.73,NNW,333,5.0,12.0,44,0.00,,OVC021,0.00,612.00,VWS V14.01,2013-03-27 14:05:00,
2013-03-27 10:08:00,44.4,24.4,29.73,North,355,7.0,13.0,45,0.00,,OVC021,0.00,624.00,VWS V14.01,2013-03-27 14:08:00,
2013-03-27 10:10:00,44.4,24.4,29.73,North,355,7.0,13.0,45,0.00,,OVC021,0.00,624.00,VWS V14.01,2013-03-27 14:10:00,
2013-03-27 10:13:00,44.6,24.0,29.73,West,279,8.0,8.0,44,0.00,,OVC021,0.00,636.00,VWS V14.01,2013-03-27 14:13:00,
2013-03-27 10:15:00,44.6,24.0,29.73,WNW,302,7.0,11.0,44,0.00,,OVC021,0.00,636.00,VWS V14.01,2013-03-27 14:15:00,
2013-03-27 10:18:00,44.9,24.9,29.73,NW,311,12.0,12.0,45,0.00,,OVC021,0.00,649.00,VWS V14.01,2013-03-27 14:18:00,
2013-03-27 10:20:00,44.9,24.9,29.73,NNW,328,9.0,14.0,45,0.00,,OVC021,0.00,647.00,VWS V14.01,2013-03-27 14:20:00,
2013-03-27 10:23:00,44.9,24.9,29.73,NW,309,11.0,16.0,45,0.00,,OVC021,0.00,659.00,VWS V14.01,2013-03-27 14:23:00,
2013-03-27 10:25:00,44.8,24.8,29.72,NW,313,10.0,14.0,45,0.00,,OVC021,0.00,656.00,VWS V14.01,2013-03-27 14:25:00,
2013-03-27 10:29:00,45.1,24.5,29.72,North,355,5.0,12.0,44,0.00,,OVC021,0.00,670.00,VWS V14.01,2013-03-27 14:29:00,
2013-03-27 10:30:00,45.0,25.0,29.72,North,360,10.0,16.0,45,0.00,,OVC021,0.00,668.00,VWS V14.01,2013-03-27 14:30:00,
2013-03-27 10:34:00,45.4,24.2,29.72,NNW,336,4.0,10.0,43,0.00,,OVC021,0.00,679.00,VWS V14.01,2013-03-27 14:34:00,
2013-03-27 10:35:00,45.3,24.7,29.72,NNW,340,4.0,12.0,44,0.00,,OVC021,0.00,679.00,VWS V14.01,2013-03-27 14:35:00,
2013-03-27 10:39:00,46.1,25.4,29.72,NW,323,6.0,7.0,44,0.00,,OVC021,0.00,689.00,VWS V14.01,2013-03-27 14:39:00,
2013-03-27 10:40:00,45.9,25.8,29.72,NW,319,5.0,14.0,45,0.00,,OVC021,0.00,687.00,VWS V14.01,2013-03-27 14:40:00,
2013-03-27 10:44:00,46.5,25.2,29.72,NW,313,10.0,11.0,43,0.00,,OVC021,0.00,700.00,VWS V14.01,2013-03-27 14:44:00,
2013-03-27 10:45:00,46.3,25.6,29.72,NNW,337,7.0,13.0,44,0.00,,OVC021,0.00,698.00,VWS V14.01,2013-03-27 14:45:00,
2013-03-27 10:49:00,46.7,25.4,29.72,NNW,336,12.0,12.0,43,0.00,,OVC021,0.00,710.00,VWS V14.01,2013-03-27 14:49:00,
2013-03-27 10:50:00,46.6,25.3,29.72,NW,309,5.0,14.0,43,0.00,,OVC021,0.00,708.00,VWS V14.01,2013-03-27 14:50:00,
2013-03-27 10:54:00,46.5,24.7,29.72,NW,309,11.0,15.0,42,0.00,,OVC021,0.00,719.00,VWS V14.01,2013-03-27 14:54:00,
2013-03-27 10:55:00,46.5,24.7,29.72,NW,318,8.0,13.0,42,0.00,,OVC021,0.00,714.00,VWS V14.01,2013-03-27 14:55:00,
2013-03-27 11:00:00,46.7,24.8,29.72,NW,304,11.0,12.0,42,0.00,,OVC021,0.00,724.00,VWS V14.01,2013-03-27 15:00:00,
2013-03-27 11:05:00,46.8,24.9,29.72,NNW,347,7.0,10.0,42,0.00,,OVC021,0.00,735.00,VWS V14.01,2013-03-27 15:05:00,
2013-03-27 11:10:00,46.9,25.6,29.71,NW,321,9.0,10.0,43,0.00,,OVC021,0.00,740.00,VWS V14.01,2013-03-27 15:10:00,
2013-03-27 11:15:00,47.4,24.9,29.72,NNW,328,7.0,15.0,41,0.00,,OVC021,0.00,747.00,VWS V14.01,2013-03-27 15:15:00,
2013-03-27 11:20:00,47.7,25.2,29.71,WNW,286,8.0,12.0,41,0.00,,OVC021,0.00,756.00,VWS V14.01,2013-03-27 15:20:00,
2013-03-27 11:25:00,47.9,25.4,29.71,NW,318,12.0,13.0,41,0.00,,OVC021,0.00,765.00,VWS V14.01,2013-03-27 15:25:00,
2013-03-27 11:30:00,47.7,24.6,29.71,NNW,335,8.0,15.0,40,0.00,,OVC021,0.00,765.00,VWS V14.01,2013-03-27 15:30:00,
2013-03-27 11:31:00,47.4,24.9,29.71,NW,313,11.0,14.0,41,0.00,,OVC021,0.00,772.00,VWS V14.01,2013-03-27 15:31:00,
2013-03-27 11:35:00,47.6,25.7,29.71,NW,305,11.0,14.0,42,0.00,,OVC021,0.00,777.00,VWS V14.01,2013-03-27 15:35:00,
2013-03-27 11:36:00,48.1,25.5,29.71,NNW,335,6.0,11.0,41,0.00,,OVC021,0.00,779.00,VWS V14.01,2013-03-27 15:36:00,
2013-03-27 11:40:00,48.3,25.7,29.71,NE,34,7.0,12.0,41,0.00,,OVC021,0.00,780.00,VWS V14.01,2013-03-27 15:40:00,
2013-03-27 11:42:00,48.4,25.2,29.71,NW,306,5.0,12.0,40,0.00,,OVC021,0.00,786.00,VWS V14.01,2013-03-27 15:42:00,
2013-03-27 11:45:00,48.6,26.6,29.70,North,355,5.0,12.0,42,0.00,,OVC021,0.00,786.00,VWS V14.01,2013-03-27 15:45:00,
2013-03-27 11:47:00,48.9,25.7,29.70,NNW,342,8.0,11.0,40,0.00,,OVC021,0.00,786.00,VWS V14.01,2013-03-27 15:47:00,
2013-03-27 11:50:00,49.0,25.8,29.70,NW,311,10.0,11.0,40,0.00,,OVC021,0.00,789.00,VWS V14.01,2013-03-27 15:50:00,
2013-03-27 11:52:00,49.3,26.0,29.70,NNW,340,7.0,13.0,40,0.00,,OVC021,0.00,812.00,VWS V14.01,2013-03-27 15:52:00,
2013-03-27 11:55:00,49.3,25.4,29.70,North,5,11.0,13.0,39,0.00,,OVC021,0.00,817.00,VWS V14.01,2013-03-27 15:55:00,
2013-03-27 11:57:00,48.8,25.0,29.70,North,349,4.0,15.0,39,0.00,,OVC021,0.00,127.00,VWS V14.01,2013-03-27 15:57:00,
2013-03-27 12:00:00,48.8,25.0,29.70,NNW,348,9.0,15.0,39,0.00,,OVC021,0.00,127.00,VWS V14.01,2013-03-27 16:00:00,
2013-03-27 12:03:00,48.7,24.9,29.70,NNW,329,13.0,21.0,39,0.00,,OVC021,0.00,833.00,VWS V14.01,2013-03-27 16:03:00,
2013-03-27 12:05:00,48.7,24.9,29.70,NNW,329,13.0,21.0,39,0.00,,OVC021,0.00,833.00,VWS V14.01,2013-03-27 16:05:00,
2013-03-27 12:08:00,48.9,25.0,29.70,NNW,331,5.0,14.0,39,0.00,,OVC021,0.00,814.00,VWS V14.01,2013-03-27 16:08:00,
2013-03-27 12:10:00,48.9,25.0,29.70,NNW,331,5.0,14.0,39,0.00,,OVC021,0.00,814.00,VWS V14.01,2013-03-27 16:10:00,
2013-03-27 12:13:00,49.1,25.8,29.69,NNE,27,4.0,5.0,40,0.00,,OVC021,0.00,817.00,VWS V14.01,2013-03-27 16:13:00,
2013-03-27 12:15:00,49.1,25.8,29.70,North,351,5.0,11.0,40,0.00,,OVC021,0.00,817.00,VWS V14.01,2013-03-27 16:15:00,
2013-03-27 12:18:00,49.1,25.8,29.70,NW,319,6.0,6.0,40,0.00,,OVC021,0.00,823.00,VWS V14.01,2013-03-27 16:18:00,
2013-03-27 12:20:00,49.1,24.6,29.70,NNW,340,6.0,19.0,38,0.00,,OVC021,0.00,823.00,VWS V14.01,2013-03-27 16:20:00,
2013-03-27 12:23:00,49.6,25.0,29.69,West,279,8.0,9.0,38,0.00,,OVC021,0.00,838.00,VWS V14.01,2013-03-27 16:23:00,
2013-03-27 12:25:00,49.6,25.0,29.69,NNW,346,9.0,13.0,38,0.00,,OVC021,0.00,838.00,VWS V14.01,2013-03-27 16:25:00,
2013-03-27 12:28:00,49.4,24.9,29.69,WNW,283,7.0,19.0,38,0.00,,OVC021,0.00,886.00,VWS V14.01,2013-03-27 16:28:00,
2013-03-27 12:30:00,49.4,24.9,29.69,NW,310,15.0,15.0,38,0.00,,OVC021,0.00,886.00,VWS V14.01,2013-03-27 16:30:00,
2013-03-27 12:33:00,49.9,25.3,29.69,WNW,303,6.0,11.0,38,0.00,,OVC021,0.00,838.00,VWS V14.01,2013-03-27 16:33:00,
2013-03-27 12:35:00,49.9,24.7,29.69,NNW,340,11.0,19.0,37,0.00,,OVC021,0.00,838.00,VWS V14.01,2013-03-27 16:35:00,
2013-03-27 12:38:00,50.1,25.5,29.69,NW,319,11.0,13.0,38,0.00,,OVC021,0.00,884.00,VWS V14.01,2013-03-27 16:38:00,
2013-03-27 12:40:00,50.0,25.4,29.69,NW,321,9.0,15.0,38,0.00,,OVC021,0.00,881.00,VWS V14.01,2013-03-27 16:40:00,
2013-03-27 12:43:00,49.9,24.0,29.69,NNW,329,5.0,9.0,36,0.00,,OVC021,0.00,851.00,VWS V14.01,2013-03-27 16:43:00,
2013-03-27 12:45:00,50.0,24.1,29.70,NNW,333,9.0,16.0,36,0.00,,OVC021,0.00,853.00,VWS V14.01,2013-03-27 16:45:00,
2013-03-27 12:49:00,50.0,24.8,29.68,NW,313,16.0,32.0,37,0.00,,OVC021,0.00,847.00,VWS V14.01,2013-03-27 16:49:00,
2013-03-27 12:50:00,49.9,25.3,29.69,South,191,17.0,32.0,38,0.00,,OVC021,0.00,849.00,VWS V14.01,2013-03-27 16:50:00,
2013-03-27 12:54:00,50.3,26.3,29.69,North,5,10.0,10.0,39,0.00,,OVC021,0.00,900.00,VWS V14.01,2013-03-27 16:54:00,
2013-03-27 12:55:00,50.3,25.0,29.69,NW,325,5.0,32.0,37,0.00,,OVC021,0.00,881.00,VWS V14.01,2013-03-27 16:55:00,
2013-03-27 12:59:00,50.5,25.2,29.69,NW,316,9.0,12.0,37,0.00,,OVC021,0.00,925.00,VWS V14.01,2013-03-27 16:59:00,
2013-03-27 13:00:00,50.5,25.2,29.69,NW,323,6.0,13.0,37,0.00,,OVC021,0.00,925.00,VWS V14.01,2013-03-27 17:00:00,
2013-03-27 13:04:00,49.8,24.6,29.69,NNW,333,4.0,7.0,37,0.00,,OVC021,0.00,216.00,VWS V14.01,2013-03-27 17:04:00,
2013-03-27 13:05:00,49.9,24.7,29.69,NNW,329,4.0,13.0,37,0.00,,OVC021,0.00,225.00,VWS V14.01,2013-03-27 17:05:00,
2013-03-27 13:09:00,49.4,24.2,29.68,WNW,294,9.0,11.0,37,0.00,,OVC021,0.00,967.00,VWS V14.01,2013-03-27 17:09:00,
2013-03-27 13:10:00,49.4,24.2,29.69,West,279,10.0,14.0,37,0.00,,OVC021,0.00,207.00,VWS V14.01,2013-03-27 17:10:00,
2013-03-27 13:14:00,50.1,24.9,29.68,NW,313,9.0,14.0,37,0.00,,OVC021,0.00,144.00,VWS V14.01,2013-03-27 17:14:00,
2013-03-27 13:15:00,49.7,24.5,29.68,West,281,2.0,11.0,37,0.00,,OVC021,0.00,851.00,VWS V14.01,2013-03-27 17:15:00,
2013-03-27 13:20:00,50.3,25.7,29.68,NNE,14,5.0,7.0,38,0.00,,OVC021,0.00,835.00,VWS V14.01,2013-03-27 17:20:00,
2013-03-27 13:25:00,50.5,23.9,29.70,North,5,5.0,13.0,35,0.00,,OVC021,0.00,181.00,VWS V14.01,2013-03-27 17:25:00,
2013-03-27 13:30:00,50.0,24.1,29.69,NNW,336,7.0,14.0,36,0.00,,OVC021,0.00,213.00,VWS V14.01,2013-03-27 17:30:00,
2013-03-27 13:35:00,49.7,23.9,29.69,WNW,284,4.0,10.0,36,0.00,,OVC021,0.00,190.00,VWS V14.01,2013-03-27 17:35:00,
2013-03-27 13:40:00,49.4,23.6,29.69,North,360,11.0,17.0,36,0.00,,OVC021,0.00,176.00,VWS V14.01,2013-03-27 17:40:00,
2013-03-27 13:45:00,49.1,23.3,29.68,WNW,294,7.0,11.0,36,0.00,,OVC021,0.00,185.00,VWS V14.01,2013-03-27 17:45:00,
2013-03-27 13:50:00,49.1,23.3,29.68,NNW,345,6.0,12.0,36,0.00,,OVC021,0.00,192.00,VWS V14.01,2013-03-27 17:50:00,
2013-03-27 13:55:00,49.0,23.2,29.69,NW,307,6.0,12.0,36,0.00,,OVC021,0.00,204.00,VWS V14.01,2013-03-27 17:55:00,
2013-03-27 13:56:00,49.2,24.1,29.69,North,350,8.0,12.0,37,0.00,,OVC021,0.00,244.00,VWS V14.01,2013-03-27 17:56:00,
2013-03-27 14:00:00,49.3,23.5,29.68,NNW,343,5.0,12.0,36,0.00,,OVC021,0.00,246.00,VWS V14.01,2013-03-27 18:00:00,
2013-03-27 14:01:00,49.5,23.7,29.68,WNW,302,4.0,5.0,36,0.00,,OVC021,0.00,239.00,VWS V14.01,2013-03-27 18:01:00,
2013-03-27 14:05:00,49.5,23.0,29.68,NNW,336,5.0,10.0,35,0.00,,OVC021,0.00,213.00,VWS V14.01,2013-03-27 18:05:00,
2013-03-27 14:06:00,49.5,23.7,29.68,NNW,342,7.0,13.0,36,0.00,,OVC021,0.00,227.00,VWS V14.01,2013-03-27 18:06:00,
2013-03-27 14:10:00,49.5,23.0,29.68,NNW,334,6.0,14.0,35,0.00,,OVC021,0.00,239.00,VWS V14.01,2013-03-27 18:10:00,
2013-03-27 14:11:00,49.5,23.7,29.69,NW,309,7.0,11.0,36,0.00,,OVC021,0.00,230.00,VWS V14.01,2013-03-27 18:11:00,
2013-03-27 14:15:00,49.7,23.2,29.69,NNW,338,10.0,12.0,35,0.00,,OVC021,0.00,221.00,VWS V14.01,2013-03-27 18:15:00,
2013-03-27 14:16:00,49.9,24.0,29.67,NNW,330,9.0,14.0,36,0.00,,OVC021,0.00,214.00,VWS V14.01,2013-03-27 18:16:00,
2013-03-27 14:20:00,49.9,23.4,29.68,WNW,295,12.0,18.0,35,0.00,,OVC021,0.00,216.00,VWS V14.01,2013-03-27 18:20:00,
2013-03-27 14:22:00,49.8,21.9,29.68,NW,315,9.0,18.0,33,0.00,,OVC021,0.00,195.00,VWS V14.01,2013-03-27 18:22:00,
2013-03-27 14:25:00,49.8,21.9,29.68,NNW,330,5.0,18.0,33,0.00,,OVC021,0.00,195.00,VWS V14.01,2013-03-27 18:25:00,
2013-03-27 14:27:00,49.9,22.7,29.68,WNW,300,4.0,13.0,34,0.00,,OVC021,0.00,190.00,VWS V14.01,2013-03-27 18:27:00,
2013-03-27 14:30:00,49.9,22.0,29.68,WNW,287,8.0,13.0,33,0.00,,OVC021,0.00,190.00,VWS V14.01,2013-03-27 18:30:00,
2013-03-27 14:32:00,49.9,22.7,29.68,NW,317,10.0,17.0,34,0.00,,OVC021,0.00,258.00,VWS V14.01,2013-03-27 18:32:00,
2013-03-27 14:35:00,49.9,22.7,29.68,WNW,287,4.0,17.0,34,0.00,,OVC021,0.00,258.00,VWS V14.01,2013-03-27 18:35:00,
2013-03-27 14:38:00,50.0,22.0,29.68,West,277,11.0,18.0,33,0.00,,OVC021,0.00,260.00,VWS V14.01,2013-03-27 18:38:00,
2013-03-27 14:40:00,50.0,22.0,29.68,WNW,286,10.0,18.0,33,0.00,,OVC021,0.00,260.00,VWS V14.01,2013-03-27 18:40:00,
2013-03-27 14:43:00,50.6,23.3,29.67,West,271,12.0,17.0,34,0.00,,OVC021,0.00,323.00,VWS V14.01,2013-03-27 18:43:00,
2013-03-27 14:45:00,50.6,23.3,29.67,West,271,12.0,17.0,34,0.00,,OVC021,0.00,323.00,VWS V14.01,2013-03-27 18:45:00,
2013-03-27 14:48:00,51.5,23.4,29.69,NW,312,9.0,15.0,33,0.00,,OVC021,0.00,216.00,VWS V14.01,2013-03-27 18:48:00,
2013-03-27 14:50:00,51.5,23.4,29.69,NW,312,9.0,15.0,33,0.00,,OVC021,0.00,216.00,VWS V14.01,2013-03-27 18:50:00,
2013-03-27 14:53:00,50.8,22.8,29.68,NNW,346,6.0,9.0,33,0.00,,OVC021,0.00,207.00,VWS V14.01,2013-03-27 18:53:00,
2013-03-27 14:55:00,50.8,22.8,29.68,NW,310,9.0,16.0,33,0.00,,OVC021,0.00,207.00,VWS V14.01,2013-03-27 18:55:00,
2013-03-27 14:58:00,50.4,23.1,29.68,West,276,16.0,16.0,34,0.00,,OVC021,0.00,190.00,VWS V14.01,2013-03-27 18:58:00,
2013-03-27 15:00:00,50.4,23.1,29.68,WNW,288,10.0,14.0,34,0.00,,OVC021,0.00,193.00,VWS V14.01,2013-03-27 19:00:00,
2013-03-27 15:04:00,49.9,22.0,29.68,NNW,336,10.0,13.0,33,0.00,,OVC021,0.00,167.00,VWS V14.01,2013-03-27 19:04:00,
2013-03-27 15:05:00,50.0,22.8,29.68,NW,318,13.0,19.0,34,0.00,,OVC021,0.00,169.00,VWS V14.01,2013-03-27 19:05:00,
2013-03-27 15:09:00,49.8,23.3,29.68,NW,312,6.0,9.0,35,0.00,,OVC021,0.00,169.00,VWS V14.01,2013-03-27 19:09:00,
2013-03-27 15:10:00,49.8,22.6,29.69,West,273,9.0,15.0,34,0.00,,OVC021,0.00,165.00,VWS V14.01,2013-03-27 19:10:00,
2013-03-27 15:14:00,49.9,22.7,29.67,NW,309,8.0,13.0,34,0.00,,OVC021,0.00,232.00,VWS V14.01,2013-03-27 19:14:00,
2013-03-27 15:15:00,49.8,22.6,29.68,WNW,292,10.0,16.0,34,0.00,,OVC021,0.00,232.00,VWS V14.01,2013-03-27 19:15:00,
2013-03-27 15:19:00,49.9,22.7,29.68,NNW,330,13.0,15.0,34,0.00,,OVC021,0.00,213.00,VWS V14.01,2013-03-27 19:19:00,
2013-03-27 15:20:00,50.1,22.8,29.68,NW,317,12.0,17.0,34,0.00,,OVC021,0.00,193.00,VWS V14.01,2013-03-27 19:20:00,
2013-03-27 15:24:00,50.5,23.9,29.69,WNW,282,9.0,18.0,35,0.00,,OVC021,0.00,345.00,VWS V14.01,2013-03-27 19:24:00,
2013-03-27 15:25:00,50.2,23.6,29.69,NW,306,18.0,18.0,35,0.00,,OVC021,0.00,700.00,VWS V14.01,2013-03-27 19:25:00,
2013-03-27 15:30:00,50.5,23.9,29.67,NNE,25,5.0,14.0,35,0.00,,OVC021,0.00,134.00,VWS V14.01,2013-03-27 19:30:00,
2013-03-27 15:35:00,50.2,23.6,29.68,NNW,346,7.0,14.0,35,0.00,,OVC021,0.00,134.00,VWS V14.01,2013-03-27 19:35:00,
2013-03-27 15:40:00,50.0,24.1,29.69,NNW,327,13.0,18.0,36,0.00,,OVC021,0.00,167.00,VWS V14.01,2013-03-27 19:40:00,
2013-03-27 15:45:00,49.8,23.3,29.68,NW,326,10.0,14.0,35,0.00,,OVC021,0.00,295.00,VWS V14.01,2013-03-27 19:45:00,
2013-03-27 15:50:00,49.9,23.4,29.68,WNW,301,3.0,14.0,35,0.00,,OVC021,0.00,169.00,VWS V14.01,2013-03-27 19:50:00,
2013-03-27 15:55:00,50.3,23.7,29.68,NNE,17,12.0,12.0,35,0.00,,OVC021,0.00,141.00,VWS V14.01,2013-03-27 19:55:00,
2013-03-27 16:00:00,50.3,23.7,29.69,NNW,335,5.0,12.0,35,0.00,,OVC021,0.00,135.00,VWS V14.01,2013-03-27 20:00:00,
2013-03-27 16:01:00,50.4,24.5,29.68,NNW,345,3.0,12.0,36,0.00,,OVC021,0.00,179.00,VWS V14.01,2013-03-27 20:01:00,
2013-03-27 16:05:00,50.4,23.8,29.68,North,5,10.0,14.0,35,0.00,,OVC021,0.00,192.00,VWS V14.01,2013-03-27 20:05:00,
2013-03-27 16:06:00,50.4,23.8,29.68,NW,323,4.0,11.0,35,0.00,,OVC021,0.00,638.00,VWS V14.01,2013-03-27 20:06:00,
2013-03-27 16:10:00,50.6,24.0,29.68,NW,317,5.0,12.0,35,0.00,,OVC021,0.00,633.00,VWS V14.01,2013-03-27 20:10:00,
2013-03-27 16:12:00,51.0,24.3,29.68,NNW,338,9.0,10.0,35,0.00,,OVC021,0.00,162.00,VWS V14.01,2013-03-27 20:12:00,
2013-03-27 16:15:00,51.0,24.3,29.68,NNW,340,13.0,14.0,35,0.00,,OVC021,0.00,151.00,VWS V14.01,2013-03-27 20:15:00,
2013-03-27 16:17:00,50.5,23.9,29.69,NW,325,7.0,14.0,35,0.00,,OVC021,0.00,105.00,VWS V14.01,2013-03-27 20:17:00,
2013-03-27 16:20:00,50.3,23.7,29.69,NW,309,8.0,14.0,35,0.00,,OVC021,0.00,100.00,VWS V14.01,2013-03-27 20:20:00,
2013-03-27 16:22:00,49.9,24.0,29.69,NW,315,12.0,16.0,36,0.00,,OVC021,0.00,86.00,VWS V14.01,2013-03-27 20:22:00,
2013-03-27 16:25:00,49.8,23.3,29.69,NW,308,9.0,16.0,35,0.00,,OVC021,0.00,88.00,VWS V14.01,2013-03-27 20:25:00,
2013-03-27 16:27:00,49.5,23.7,29.69,NNW,337,8.0,13.0,36,0.00,,OVC021,0.00,113.00,VWS V14.01,2013-03-27 20:27:00,
2013-03-27 16:30:00,49.5,23.7,29.69,WNW,303,7.0,13.0,36,0.00,,OVC021,0.00,120.00,VWS V14.01,2013-03-27 20:30:00,
2013-03-27 16:32:00,49.5,24.3,29.69,NW,325,3.0,11.0,37,0.00,,OVC021,0.00,178.00,VWS V14.01,2013-03-27 20:32:00,
2013-03-27 16:35:00,49.5,24.3,29.69,WNW,299,3.0,11.0,37,0.00,,OVC021,0.00,178.00,VWS V14.01,2013-03-27 20:35:00,
2013-03-27 16:37:00,49.7,23.9,29.69,NNW,327,6.0,11.0,36,0.00,,OVC021,0.00,243.00,VWS V14.01,2013-03-27 20:37:00,
2013-03-27 16:40:00,49.8,24.6,29.69,NNW,346,5.0,11.0,37,0.00,,OVC021,0.00,243.00,VWS V14.01,2013-03-27 20:40:00,
2013-03-27 16:42:00,50.3,24.4,29.69,WNW,288,11.0,14.0,36,0.00,,OVC021,0.00,113.00,VWS V14.01,2013-03-27 20:42:00,
2013-03-27 16:45:00,50.3,23.7,29.69,NNW,338,8.0,14.0,35,0.00,,OVC021,0.00,113.00,VWS V14.01,2013-03-27 20:45:00,
2013-03-27 16:48:00,49.9,23.4,29.70,WNW,299,6.0,13.0,35,0.00,,OVC021,0.00,128.00,VWS V14.01,2013-03-27 20:48:00,
2013-03-27 16:50:00,49.9,23.4,29.70,WNW,299,6.0,13.0,35,0.00,,OVC021,0.00,128.00,VWS V14.01,2013-03-27 20:50:00,
2013-03-27 16:53:00,49.8,23.9,29.69,NW,317,6.0,12.0,36,0.00,,OVC021,0.00,134.00,VWS V14.01,2013-03-27 20:53:00,
2013-03-27 16:55:00,49.8,23.9,29.69,NW,317,6.0,12.0,36,0.00,,OVC021,0.00,134.00,VWS V14.01,2013-03-27 20:55:00,
2013-03-27 16:58:00,49.6,23.1,29.70,WNW,294,14.0,19.0,35,0.00,,OVC021,0.00,120.00,VWS V14.01,2013-03-27 20:58:00,
2013-03-27 17:00:00,49.6,23.1,29.70,WNW,294,14.0,19.0,35,0.00,,OVC021,0.00,120.00,VWS V14.01,2013-03-27 21:00:00,
2013-03-27 17:03:00,49.3,24.1,29.71,NW,325,10.0,14.0,37,0.00,,OVC021,0.00,98.00,VWS V14.01,2013-03-27 21:03:00,
2013-03-27 17:05:00,49.3,24.1,29.71,NW,325,10.0,14.0,37,0.00,,OVC021,0.00,98.00,VWS V14.01,2013-03-27 21:05:00,
2013-03-27 17:08:00,49.4,23.6,29.70,NNW,331,9.0,16.0,36,0.00,,OVC021,0.00,294.00,VWS V14.01,2013-03-27 21:08:00,
2013-03-27 17:10:00,49.4,23.6,29.70,NNW,331,9.0,16.0,36,0.00,,OVC021,0.00,294.00,VWS V14.01,2013-03-27 21:10:00,
2013-03-27 17:13:00,49.9,24.0,29.70,NW,317,13.0,18.0,36,0.00,,OVC021,0.00,378.00,VWS V14.01,2013-03-27 21:13:00,
2013-03-27 17:15:00,49.9,24.0,29.70,NW,317,13.0,18.0,36,0.00,,OVC021,0.00,378.00,VWS V14.01,2013-03-27 21:15:00,
2013-03-27 17:18:00,50.1,23.5,29.70,NW,321,6.0,20.0,35,0.00,,OVC021,0.00,348.00,VWS V14.01,2013-03-27 21:18:00,
2013-03-27 17:20:00,50.1,23.5,29.70,NW,321,6.0,20.0,35,0.00,,OVC021,0.00,348.00,VWS V14.01,2013-03-27 21:20:00,
2013-03-27 17:23:00,50.4,23.8,29.71,NW,310,9.0,15.0,35,0.00,,OVC021,0.00,323.00,VWS V14.01,2013-03-27 21:23:00,
2013-03-27 17:25:00,50.4,23.8,29.71,NW,310,9.0,15.0,35,0.00,,OVC021,0.00,323.00,VWS V14.01,2013-03-27 21:25:00,
2013-03-27 17:28:00,50.7,24.7,29.70,NW,309,12.0,16.0,36,0.00,,OVC021,0.00,276.00,VWS V14.01,2013-03-27 21:28:00,
2013-03-27 17:30:00,50.7,24.7,29.70,NW,309,12.0,16.0,36,0.00,,OVC021,0.00,276.00,VWS V14.01,2013-03-27 21:30:00,
2013-03-27 17:33:00,50.3,24.4,29.71,NW,309,15.0,20.0,36,0.00,,OVC021,0.00,91.00,VWS V14.01,2013-03-27 21:33:00,
2013-03-27 17:35:00,50.3,24.4,29.71,NW,309,15.0,20.0,36,0.00,,OVC021,0.00,91.00,VWS V14.01,2013-03-27 21:35:00,
2013-03-27 17:38:00,49.6,23.8,29.72,WNW,286,8.0,17.0,36,0.00,,OVC021,0.00,195.00,VWS V14.01,2013-03-27 21:38:00,
2013-03-27 17:40:00,49.6,23.8,29.72,WNW,286,8.0,17.0,36,0.00,,OVC021,0.00,195.00,VWS V14.01,2013-03-27 21:40:00,
2013-03-27 17:43:00,49.4,24.2,29.71,WNW,294,11.0,17.0,37,0.00,,OVC021,0.00,134.00,VWS V14.01,2013-03-27 21:43:00,
2013-03-27 17:45:00,49.4,24.2,29.71,WNW,294,11.0,17.0,37,0.00,,OVC021,0.00,134.00,VWS V14.01,2013-03-27 21:45:00,
2013-03-27 17:48:00,49.5,24.3,29.72,NW,318,6.0,11.0,37,0.00,,OVC021,0.00,174.00,VWS V14.01,2013-03-27 21:48:00,
2013-03-27 17:50:00,49.5,24.3,29.71,NW,321,9.0,16.0,37,0.00,,OVC021,0.00,176.00,VWS V14.01,2013-03-27 21:50:00,
2013-03-27 17:53:00,49.4,23.6,29.72,NW,314,9.0,9.0,36,0.00,,OVC021,0.00,162.00,VWS V14.01,2013-03-27 21:53:00,
2013-03-27 17:55:00,49.5,23.7,29.71,NNW,333,6.0,22.0,36,0.00,,OVC021,0.00,165.00,VWS V14.01,2013-03-27 21:55:00,
2013-03-27 17:58:00,49.3,23.5,29.72,WNW,300,11.0,11.0,36,0.00,,OVC021,0.00,135.00,VWS V14.01,2013-03-27 21:58:00,
2013-03-27 18:00:00,49.3,23.5,29.73,WNW,284,6.0,17.0,36,0.00,,OVC021,0.00,139.00,VWS V14.01,2013-03-27 22:00:00,
2013-03-27 18:03:00,49.0,23.2,29.72,NW,318,11.0,11.0,36,0.00,,OVC021,0.00,81.00,VWS V14.01,2013-03-27 22:03:00,
2013-03-27 18:05:00,49.1,23.3,29.72,WNW,298,7.0,19.0,36,0.00,,OVC021,0.00,49.00,VWS V14.01,2013-03-27 22:05:00,
2013-03-27 18:09:00,48.6,23.5,29.72,North,355,11.0,14.0,37,0.00,,OVC021,0.00,84.00,VWS V14.01,2013-03-27 22:09:00,
2013-03-27 18:10:00,48.7,23.6,29.72,NW,304,10.0,20.0,37,0.00,,OVC021,0.00,60.00,VWS V14.01,2013-03-27 22:10:00,
2013-03-27 18:14:00,48.6,23.5,29.74,NW,313,15.0,16.0,37,0.00,,OVC021,0.00,102.00,VWS V14.01,2013-03-27 22:14:00,
2013-03-27 18:15:00,48.5,23.4,29.74,NW,326,12.0,14.0,37,0.00,,OVC021,0.00,105.00,VWS V14.01,2013-03-27 22:15:00,
2013-03-27 18:19:00,48.7,23.6,29.72,NW,317,7.0,14.0,37,0.00,,OVC021,0.00,76.00,VWS V14.01,2013-03-27 22:19:00,
2013-03-27 18:20:00,48.7,23.6,29.73,NNW,329,8.0,17.0,37,0.00,,OVC021,0.00,60.00,VWS V14.01,2013-03-27 22:20:00,
2013-03-27 18:24:00,48.6,23.5,29.73,NW,305,8.0,11.0,37,0.00,,OVC021,0.00,35.00,VWS V14.01,2013-03-27 22:24:00,
2013-03-27 18:25:00,48.6,23.5,29.72,NW,321,7.0,20.0,37,0.00,,OVC021,0.00,63.00,VWS V14.01,2013-03-27 22:25:00,
2013-03-27 18:29:00,48.2,23.8,29.74,NNW,327,6.0,10.0,38,0.00,,OVC021,0.00,39.00,VWS V14.01,2013-03-27 22:29:00,
2013-03-27 18:30:00,48.3,23.9,29.73,NNW,338,9.0,14.0,38,0.00,,OVC021,0.00,35.00,VWS V14.01,2013-03-27 22:30:00,
2013-03-27 18:34:00,48.0,23.6,29.73,NW,326,7.0,10.0,38,0.00,,OVC021,0.00,37.00,VWS V14.01,2013-03-27 22:34:00,
2013-03-27 18:35:00,48.1,23.7,29.73,NNW,330,7.0,14.0,38,0.00,,OVC021,0.00,39.00,VWS V14.01,2013-03-27 22:35:00,
2013-03-27 18:40:00,47.7,24.0,29.73,NNW,331,10.0,14.0,39,0.00,,OVC021,0.00,37.00,VWS V14.01,2013-03-27 22:40:00,
2013-03-27 18:45:00,47.6,23.9,29.74,NNW,348,3.0,12.0,39,0.00,,OVC021,0.00,35.00,VWS V14.01,2013-03-27 22:45:00,
2013-03-27 18:50:00,47.6,23.9,29.74,NW,325,7.0,13.0,39,0.00,,OVC021,0.00,25.00,VWS V14.01,2013-03-27 22:50:00,
2013-03-27 18:55:00,47.5,24.4,29.74,NNW,338,6.0,11.0,40,0.00,,OVC021,0.00,18.00,VWS V14.01,2013-03-27 22:55:00,
2013-03-27 19:00:00,47.5,23.8,29.74,North,355,7.0,15.0,39,0.00,,OVC021,0.00,12.00,VWS V14.01,2013-03-27 23:00:00,
2013-03-27 19:01:00,47.5,24.4,29.74,North,5,4.0,12.0,40,0.00,,OVC021,0.00,9.00,VWS V14.01,2013-03-27 23:01:00,
2013-03-27 19:05:00,47.4,24.3,29.74,NNW,338,9.0,12.0,40,0.00,,OVC021,0.00,9.00,VWS V14.01,2013-03-27 23:05:00,
2013-03-27 19:06:00,47.3,24.8,29.75,NNW,348,4.0,13.0,41,0.00,,OVC021,0.00,5.00,VWS V14.01,2013-03-27 23:06:00,
2013-03-27 19:10:00,47.3,24.8,29.74,NNW,344,1.0,13.0,41,0.00,,OVC021,0.00,5.00,VWS V14.01,2013-03-27 23:10:00,
2013-03-27 19:11:00,47.2,24.7,29.75,WNW,295,3.0,14.0,41,0.00,,OVC021,0.00,0.00,VWS V14.01,2013-03-27 23:11:00,
2013-03-27 19:15:00,47.2,24.7,29.74,North,5,9.0,15.0,41,0.00,,OVC021,0.00,0.00,VWS V14.01,2013-03-27 23:15:00,
2013-03-27 19:17:00,47.1,24.0,29.74,NW,319,13.0,16.0,40,0.00,,OVC021,0.00,0.00,VWS V14.01,2013-03-27 23:17:00,
2013-03-27 19:20:00,47.1,24.6,29.75,NW,326,12.0,16.0,41,0.00,,OVC021,0.00,0.00,VWS V14.01,2013-03-27 23:20:00,
2013-03-27 19:22:00,47.0,24.5,29.76,North,350,5.0,13.0,41,0.00,,OVC021,0.00,0.00,VWS V14.01,2013-03-27 23:22:00,
2013-03-27 19:25:00,47.0,24.5,29.76,North,5,8.0,13.0,41,0.00,,OVC021,0.00,0.00,VWS V14.01,2013-03-27 23:25:00,
2013-03-27 19:27:00,46.9,24.5,29.75,NW,323,6.0,13.0,41,0.00,,OVC021,0.00,0.00,VWS V14.01,2013-03-27 23:27:00,
2013-03-27 19:30:00,46.9,24.5,29.75,NW,325,9.0,13.0,41,0.00,,OVC021,0.00,0.00,VWS V14.01,2013-03-27 23:30:00,
2013-03-27 19:32:00,46.8,24.4,29.75,NW,322,7.0,12.0,41,0.00,,OVC021,0.00,0.00,VWS V14.01,2013-03-27 23:32:00,
2013-03-27 19:35:00,46.8,24.4,29.75,NW,324,10.0,12.0,41,0.00,,OVC021,0.00,0.00,VWS V14.01,2013-03-27 23:35:00,
2013-03-27 19:37:00,46.8,24.9,29.75,NW,325,3.0,11.0,42,0.00,,OVC021,0.00,0.00,VWS V14.01,2013-03-27 23:37:00,
2013-03-27 19:40:00,46.7,24.8,29.75,NW,319,7.0,11.0,42,0.00,,OVC021,0.00,0.00,VWS V14.01,2013-03-27 23:40:00,
2013-03-27 19:43:00,46.7,24.8,29.75,NNW,333,6.0,10.0,42,0.00,,OVC021,0.00,0.00,VWS V14.01,2013-03-27 23:43:00,
2013-03-27 19:45:00,46.7,24.8,29.75,NW,311,5.0,10.0,42,0.00,,OVC021,0.00,0.00,VWS V14.01,2013-03-27 23:45:00,
2013-03-27 19:48:00,46.6,25.3,29.75,NW,320,7.0,7.0,43,0.00,,OVC021,0.00,0.00,VWS V14.01,2013-03-27 23:48:00,
2013-03-27 19:50:00,46.6,25.3,29.75,NW,320,7.0,7.0,43,0.00,,OVC021,0.00,0.00,VWS V14.01,2013-03-27 23:50:00,
2013-03-27 19:53:00,46.5,24.7,29.76,North,9,2.0,7.0,42,0.00,,OVC021,0.00,0.00,VWS V14.01,2013-03-27 23:53:00,
2013-03-27 19:55:00,46.5,24.7,29.76,North,9,2.0,7.0,42,0.00,,OVC021,0.00,0.00,VWS V14.01,2013-03-27 23:55:00,
2013-03-27 19:58:00,46.2,26.6,29.77,East,89,10.0,15.0,46,0.00,,OVC021,0.00,0.00,VWS V14.01,2013-03-27 23:58:00,
2013-03-27 20:00:00,46.2,26.6,29.77,East,89,10.0,15.0,46,0.00,,OVC021,0.00,0.00,VWS V14.01,2013-03-28 00:00:00,
2013-03-27 20:05:00,45.6,26.5,29.76,NE,41,4.0,10.0,47,0.00,,OVC021,0.00,0.00,VWS V14.01,2013-03-28 00:05:00,
2013-03-27 20:10:00,45.3,26.8,29.77,North,5,6.0,9.0,48,0.00,,OVC021,0.00,0.00,VWS V14.01,2013-03-28 00:10:00,
2013-03-27 20:15:00,45.1,27.1,29.77,North,5,6.0,11.0,49,0.00,,OVC021,0.00,0.00,VWS V14.01,2013-03-28 00:15:00,
2013-03-27 20:20:00,45.0,27.0,29.78,North,355,2.0,9.0,49,0.00,,OVC021,0.00,0.00,VWS V14.01,2013-03-28 00:20:00,
2013-03-27 20:25:00,44.8,26.8,29.77,NNW,333,4.0,7.0,49,0.00,,OVC021,0.00,0.00,VWS V14.01,2013-03-28 00:25:00,
2013-03-27 20:30:00,44.7,27.2,29.77,North,355,0.0,8.0,50,0.00,,OVC021,0.00,0.00,VWS V14.01,2013-03-28 00:30:00,
2013-03-27 20:35:00,44.7,27.2,29.78,NNE,32,5.0,8.0,50,0.00,,OVC021,0.00,0.00,VWS V14.01,2013-03-28 00:35:00,
2013-03-27 20:40:00,44.6,27.1,29.79,North,10,6.0,8.0,50,0.00,,OVC021,0.00,0.00,VWS V14.01,2013-03-28 00:40:00,
2013-03-27 20:45:00,44.5,27.0,29.78,North,10,7.0,12.0,50,0.00,,OVC021,0.00,0.00,VWS V14.01,2013-03-28 00:45:00,
2013-03-27 20:50:00,44.4,27.4,29.78,NNE,22,2.0,12.0,51,0.00,,OVC021,0.00,0.00,VWS V14.01,2013-03-28 00:50:00,
2013-03-27 20:55:00,44.3,27.3,29.78,North,360,5.0,12.0,51,0.00,,OVC021,0.00,0.00,VWS V14.01,2013-03-28 00:55:00,
2013-03-27 21:00:00,44.2,27.7,29.79,NNE,27,8.0,15.0,52,0.00,,OVC021,0.00,0.00,VWS V14.01,2013-03-28 01:00:00,
2013-03-27 21:05:00,44.0,28.0,29.79,North,355,1.0,11.0,53,0.00,,OVC021,0.00,0.00,VWS V14.01,2013-03-28 01:05:00,
2013-03-27 21:10:00,43.8,28.2,29.79,NNW,338,10.0,12.0,54,0.00,,OVC021,0.00,0.00,VWS V14.01,2013-03-28 01:10:00,
2013-03-27 21:15:00,43.7,28.2,29.80,North,349,4.0,15.0,54,0.00,,OVC021,0.00,0.00,VWS V14.01,2013-03-28 01:15:00,
2013-03-27 21:20:00,43.6,28.5,29.81,NNW,338,3.0,11.0,55,0.00,,OVC021,0.00,0.00,VWS V14.01,2013-03-28 01:20:00,
2013-03-27 21:25:00,43.4,28.3,29.80,North,5,6.0,12.0,55,0.00,,OVC021,0.00,0.00,VWS V14.01,2013-03-28 01:25:00,
2013-03-27 21:30:00,43.3,28.2,29.80,North,349,8.0,13.0,55,0.00,,OVC021,0.00,0.00,VWS V14.01,2013-03-28 01:30:00,
2013-03-27 21:35:00,43.2,28.6,29.80,North,9,8.0,16.0,56,0.00,,OVC021,0.00,0.00,VWS V14.01,2013-03-28 01:35:00,
2013-03-27 21:40:00,43.0,28.4,29.81,NNW,340,7.0,14.0,56,0.00,,OVC021,0.00,0.00,VWS V14.01,2013-03-28 01:40:00,
2013-03-27 21:45:00,42.8,28.2,29.80,NNW,329,5.0,13.0,56,0.00,,OVC021,0.00,0.00,VWS V14.01,2013-03-28 01:45:00,
2013-03-27 21:50:00,42.7,28.5,29.80,NW,310,9.0,17.0,57,0.00,,OVC021,0.00,0.00,VWS V14.01,2013-03-28 01:50:00,
2013-03-27 21:55:00,42.5,28.4,29.80,NNW,329,5.0,12.0,57,0.00,,OVC021,0.00,0.00,VWS V14.01,2013-03-28 01:55:00,
2013-03-27 22:00:00,42.3,28.2,29.81,NNW,344,8.0,13.0,57,0.00,,OVC021,0.00,0.00,VWS V14.01,2013-03-28 02:00:00,
2013-03-27 22:05:00,42.3,28.6,29.80,NW,311,8.0,16.0,58,0.00,,OVC021,0.00,0.00,VWS V14.01,2013-03-28 02:05:00,
2013-03-27 22:10:00,42.2,28.5,29.80,NW,313,10.0,13.0,58,0.00,,OVC021,0.00,0.00,VWS V14.01,2013-03-28 02:10:00,
2013-03-27 22:15:00,42.2,28.5,29.80,NNE,26,3.0,13.0,58,0.00,,OVC021,0.00,0.00,VWS V14.01,2013-03-28 02:15:00,
2013-03-27 22:20:00,42.1,28.4,29.80,NNE,13,11.0,17.0,58,0.00,,OVC021,0.00,0.00,VWS V14.01,2013-03-28 02:20:00,
2013-03-27 22:25:00,42.0,28.3,29.81,NNE,15,13.0,15.0,58,0.00,,OVC021,0.00,0.00,VWS V14.01,2013-03-28 02:25:00,
2013-03-27 22:30:00,41.9,28.6,29.80,NNW,347,2.0,13.0,59,0.00,,OVC021,0.00,0.00,VWS V14.01,2013-03-28 02:30:00,
2013-03-27 22:35:00,41.8,29.0,29.80,NW,321,15.0,16.0,60,0.00,,OVC021,0.00,0.00,VWS V14.01,2013-03-28 02:35:00,
2013-03-27 22:40:00,41.6,28.8,29.80,NNW,339,6.0,15.0,60,0.00,,OVC021,0.00,0.00,VWS V14.01,2013-03-28 02:40:00,
2013-03-27 22:45:00,41.5,29.1,29.81,NW,316,10.0,15.0,61,0.00,,OVC021,0.00,0.00,VWS V14.01,2013-03-28 02:45:00,
2013-03-27 22:50:00,41.4,29.0,29.81,NNW,327,3.0,12.0,61,0.00,,OVC021,0.00,0.00,VWS V14.01,2013-03-28 02:50:00,
2013-03-27 22:55:00,41.3,28.9,29.81,North,360,4.0,11.0,61,0.00,,OVC021,0.00,0.00,VWS V14.01,2013-03-28 02:55:00,
2013-03-27 23:00:00,41.2,29.2,29.81,NNE,28,4.0,10.0,62,0.00,,OVC021,0.00,0.00,VWS V14.01,2013-03-28 03:00:00,
2013-03-27 23:05:00,41.0,29.8,29.81,North,9,3.0,14.0,64,0.00,,OVC021,0.00,0.00,VWS V14.01,2013-03-28 03:05:00,
2013-03-27 23:10:00,40.8,30.0,29.82,North,10,4.0,13.0,65,0.00,,OVC021,0.00,0.00,VWS V14.01,2013-03-28 03:10:00,
2013-03-27 23:15:00,40.5,30.0,29.80,NNW,344,8.0,13.0,66,0.00,,OVC021,0.00,0.00,VWS V14.01,2013-03-28 03:15:00,
2013-03-27 23:20:00,40.3,30.6,29.81,NNE,13,10.0,12.0,68,0.00,,OVC021,0.00,0.00,VWS V14.01,2013-03-28 03:20:00,
2013-03-27 23:25:00,40.1,30.8,29.81,NNW,334,5.0,14.0,69,0.00,,OVC021,0.00,0.00,VWS V14.01,2013-03-28 03:25:00,
2013-03-27 23:30:00,39.9,30.9,29.82,North,355,2.0,7.0,70,0.00,,OVC021,0.00,0.00,VWS V14.01,2013-03-28 03:30:00,
2013-03-27 23:35:00,39.8,30.8,29.81,NNW,339,6.0,10.0,70,0.00,,OVC021,0.00,0.00,VWS V14.01,2013-03-28 03:35:00,
2013-03-27 23:40:00,39.6,31.0,29.81,NNW,348,10.0,12.0,71,0.00,,OVC021,0.00,0.00,VWS V14.01,2013-03-28 03:40:00,
2013-03-27 23:45:00,39.6,31.0,29.81,NNW,331,5.0,11.0,71,0.00,,OVC021,0.00,0.00,VWS V14.01,2013-03-28 03:45:00,
2013-03-27 23:50:00,39.4,31.5,29.81,North,9,8.0,13.0,73,0.00,,OVC021,0.00,0.00,VWS V14.01,2013-03-28 03:50:00,
2013-03-27 23:55:00,39.1,31.5,29.81,NW,326,9.0,12.0,74,0.00,,OVC021,0.00,0.00,VWS V14.01,2013-03-28 03:55:00,